Location: Arrien
(43.3167°N, 0.1500°W)
Time: 21:34:50
(UTC+00:00)

Daily predictions for brighter satellites

Satellite Brightness Start Highest point End
(mag) Time Altitude Azimuth Time Altitude Azimuth Time Altitude Azimuth
Landsat 5 4.0 17:42:15 10° NNE 17:46:20 40° E 17:50:30 10° S
Okean-O 4.5 17:45:40 10° E 17:47:27 12° ENE 17:49:13 10° NE
Uosat 12 SS-18 rocket 4.5 17:44:30 10° SSW 17:49:14 74° ESE 17:55:04 10° NE
Cosmos 1656 3.9 17:45:35 10° SSW 17:51:07 77° WNW 17:56:38 10° NNE
YAOGAN 1 3.8 17:48:28 10° ESE 17:51:45 22° ENE 17:55:03 10° NNE
Genesis I 4.4 17:50:00 10° NNW 17:53:34 28° NE 17:57:06 10° ESE
Cosmos 2084 Rocket 3.3 17:49:56 10° SW 17:53:48 81° NW 17:57:42 10° NE
Cosmos 2298 Rocket 4.3 17:48:58 10° S 17:54:00 46° ESE 17:59:04 10° NNE
ARGOS 3.5 17:49:19 10° SE 17:54:22 43° ENE 17:59:27 10° N
Cosmos 1727 Rocket 4.1 17:48:52 10° N 17:55:00 55° ENE 18:01:02 10° SSE
Cosmos 1455 Rocket 4.4 17:53:12 10° SE 17:56:19 19° E 17:59:27 10° NE
Cosmos 1697 Rocket 2.8 17:51:01 10° S 17:56:33 60° ESE 18:02:08 10° NNE
Cosmos 1048 Rocket 4.2 17:51:47 10° NNW 17:57:04 53° ENE 18:02:14 10° SE
Cosmos 389 Rocket 3.1 17:55:01 10° SSE 17:58:03 32° E 18:01:07 10° NNE
CZ-4C R/B 3.4 17:54:53 10° NNE 17:58:08 37° E 18:01:17 10° SSE
Cosmos 1908 4.1 17:55:11 10° SSE 17:58:29 27° E 18:01:48 10° NNE
Meteor 1-24 Rocket 4.2 17:53:40 10° NNW 17:59:19 68° W 18:05:08 10° S
MOS 1-B Rocket 4.4 17:53:02 10° NNE 17:59:52 50° E 18:05:45 10° S
Cosmos 1174 4.4 17:57:00 10° S 17:59:56 26° ESE 18:02:36 10° ENE
Cosmos 2366 rocket 4.1 17:56:41 10° S 18:02:50 84° W 18:09:05 10° N
H-2A R/B 3.2 18:01:39 10° NE 18:04:38 19° E 18:07:37 10° SE
Cosmos 2227 Rocket 2.2 17:59:40 10° NNW 18:05:23 89° WSW 18:11:02 10° SSE
CZ-4 R/B 2.2 18:04:41 10° SE 18:08:04 28° ENE 18:11:33 10° N
Cosmos 1470 3.8 18:05:55 10° SSW 18:09:46 50° W 18:13:39 10° N
Cosmos 1758 3.3 18:06:31 10° S 18:10:31 89° ESE 18:14:31 10° N
Cosmos 405 4.3 18:09:56 10° SSW 18:13:12 42° WNW 18:16:31 10° N
CZ-2C R/B 2.7 18:09:54 10° NNE 18:15:32 69° ESE 18:21:04 10° S
BREEZE M DEB (TANK) 4.3 18:12:21 10° WNW 18:16:33 86° SSW 18:44:38 12° ESE
Cosmos 1125 Rocket 3.5 18:12:15 10° S 18:17:26 62° ESE 18:22:37 10° NNE
Cosmos 1703 3.8 18:15:37 10° N 18:19:15 34° ENE 18:22:50 10° SE
Okean 1 Rocket 3.2 18:16:10 10° SSW 18:20:29 76° W 18:24:50 10° N
Cosmos 1953 2.5 18:18:15 10° SSE 18:22:07 47° E 18:26:01 10° NNE
SL-08 R/B 4.4 18:17:55 10° S 18:24:05 80° E 18:30:23 10° N
COSMO-SKYMED 1 2.9 18:23:14 10° N 18:27:33 69° WNW 18:31:52 10° SSW
SL-08 RB Rocket 3.7 18:24:03 10° SSE 18:28:27 58° ENE 18:32:57 10° N
Cosmos 1356 4.1 18:25:08 10° NNW 18:28:28 55° W 18:31:47 10° S
Cosmos 2082 3.6 18:24:12 10° NNW 18:29:50 72° ENE 18:35:26 10° SSE
X-37B 0.9 18:27:17 10° SW 18:30:22 51° SSE 18:31:32 31° E
Meteor 1-21 Rocket 4.3 18:24:46 10° N 18:30:34 64° ENE 18:36:25 10° SSE
Cosmos 494 Rocket 3.9 18:28:50 10° NNW 18:34:06 88° ENE 18:39:17 10° SSE
Iridium 4 Rocket 3.5 18:31:59 10° NNE 18:36:08 42° E 18:40:34 10° SSE
Cosmos 1000 Rocket 4.4 18:31:12 10° N 18:37:22 70° E 18:43:31 10° SSE
DMSP B5D2-2 4.3 18:32:42 10° NNE 18:37:48 47° E 18:42:49 10° S
GPS 2-04 Rocket1 4.5 18:36:11 10° WSW 18:39:00 20° SSW 18:40:49 15° SSE
Cosmos 1892 Rocket 3.5 18:37:40 10° N 18:42:09 70° E 18:46:34 10° SSE
H-2A R/B 2.7 18:44:23 10° S 18:48:49 76° WSW 18:53:09 10° NNW
Cosmos 1821 Rocket 4.2 18:44:41 10° SSW 18:51:05 78° W 18:57:30 10° N
Cosmos 405 Rocket 2.7 18:48:13 10° N 18:52:07 64° ENE 18:54:26 23° SSE
Feng Yun 1-1 Rocket 4.4 18:48:57 10° S 18:54:24 73° WSW 19:00:01 10° NNW
H-2A R/B 4.0 18:57:10 10° SSW 19:01:50 31° W 19:06:36 10° NNW
ATLAS 5 CENTAUR R/B 1.2 18:59:13 10° SSW 19:03:01 64° ESE 19:03:32 57° E
Cosmos 2369 4.2 18:59:11 10° SW 19:04:45 60° WNW 19:10:23 10° NNE
Cosmos 1626 Rocket 4.3 19:08:05 10° N 19:11:04 36° NNE 19:11:04 36° NNE
Okean O Rocket 4.2 19:13:22 10° SW 19:16:41 21° W 19:20:00 10° NW
Cosmos 1607 4.0 19:10:26 10° NW 19:16:42 74° WSW 19:20:31 24° SSE
Cosmos 1934 Rocket 3.9 19:12:21 10° S 19:18:31 87° W 19:24:38 10° N
ATLAS 3B R/B 3.8 19:14:54 10° WSW 19:21:00 39° NW 19:27:23 10° NNE
Cosmos 1980 Rocket 2.8 19:15:46 10° SW 19:21:19 57° WNW 19:26:57 10° NNE
IRS-1C Rocket 4.3 19:16:18 10° S 19:21:32 71° WSW 19:26:48 10° NNW
Okean-O 2.7 19:21:29 35° S 19:23:18 76° WSW 19:27:44 10° NNW
Cosmos 724 4.3 19:18:04 10° NNW 19:23:59 62° NE 19:24:48 56° E
Cosmos 2263 Rocket 2.0 19:21:40 10° NNW 19:27:16 83° ENE 19:28:26 57° SE
CSL-04 Debris 4.1 19:24:26 29° SSE 19:27:17 87° WSW 19:32:43 10° NNW
Cosmos 2123 Rocket 4.1 19:20:58 10° N 19:27:19 79° W 19:33:36 10° S
YAOGAN 1 4.0 19:23:37 10° SSW 19:27:37 37° W 19:31:39 10° NNW
Cosmos 1455 Rocket 4.5 19:29:44 10° SW 19:33:49 38° WNW 19:37:59 10° N
Okean 1-7 Rocket 4.1 19:34:29 10° NNW 19:38:49 58° W 19:39:31 50° SW
H-2A R/B 3.5 19:36:57 10° N 19:40:42 35° WNW 19:44:28 10° SW
CZ-4 R/B 3.7 19:39:57 10° SSW 19:43:04 22° W 19:46:15 10° NW
Cosmos 1544 Rocket 4.5 19:42:33 10° SSW 19:46:51 48° WNW 19:51:12 10° N
Gbstr 26 Del rocket 4.4 19:39:34 10° WNW 19:47:07 79° NNE 19:48:38 62° E
Cosmos 1269 Rocket 4.2 19:41:54 10° NNW 19:47:10 66° WSW 19:47:50 60° SSW
CSL-04 Rocket 4.0 19:47:09 37° SSW 19:49:15 63° WSW 19:54:46 10° NNW
Cosmos 1844 Rocket 4.3 19:58:30 10° N 20:01:03 24° N 20:01:03 24° N
SL-16 R/B 4.0 20:01:04 10° SSW 20:02:39 20° SSW 20:02:39 20° SSW
Lacrosse 4 Rocket 4.2 20:07:30 10° NNW 20:07:58 13° NNW 20:07:58 13° NNW
Cosmos 2344 4.2 20:14:44 10° NW 20:24:02 77° NE 20:25:37 68° ESE
USA 215 4.4 20:26:30 31° NNE 20:26:30 31° NNE 20:31:54 10° NW
